User: anonymous   Login
Location: Melbourne
(37.8170°S, 144.9670°E)
Time: 01:09:58
(UTC+10:00)
Language:

CZ-3 R/B - Orbit

View from above orbital plane
View from above orbital plane
View from above satellite
View from above satellite

Ground track
Ground track

The orbit data is extracted from the following two-line orbital elements,

1 29517U 06048B   15145.06779890  .00104032 -19619-6  95119-3 0  9995
2 29517 028.4859 200.4563 4961207 220.5732 054.3432 05.84875503118424
Epoch (UTC): 25 May 2015 01:37:37
Eccentricity: 0.4961207
inclination: 28.4859°
perigee height: 178 km
apogee height: 13090 km
right ascension of ascending node: 200.4563°
argument of perigee: 220.5732°
revolutions per day: 5.84875503
mean anomaly at epoch: 54.3432°
orbit number at epoch: 11842

The dashed part of the orbit path shows where the satellite is in the earth's shadow,  

DLR